カタログに戻る

COSMOS 1752

運用中軍事LEO
NORAD 16762·PAYLOAD·🇷🇺 Russia

打ち上げ Jun 6, 1986 から Plesetsk Cosmodrome

Loading…

次のパス (今後24時間)

TLE

最新Source: Space-Track

元期: Sep 14, 2026, 13:54 UTC

1 16762U 86042E   26257.57926197 -.00000003  00000-0  88262-4 0  9994
2 16762  74.0191 311.8063 0012257 245.4589 186.3557 12.47018322833461

AllMySatでCOSMOS 1752をリアルタイム追跡

Download on the App Store